Starlink 33614

operational
NORAD ID: 63372 Int'l Des: 2025-063 Owner: SPXS Country: US Constellation: starlink
LEOCIRCULAR

About Starlink 33614

Description loading...

Live Position

Loading 3D Globe...

Upcoming Passes

Altitude History

Altitude vs Time

uPlot chart will show altitude changes over time

Two-Line Element Set

1 63372U 25063K 25352.29578781 .00027645 00000-0 94153-3 0 9990
2 63372 53.1588 67.9786 0001297 82.7712 277.3437 15.30217676 42335
Epoch: Dec 18, 2025 • Age: 9 hours

Current Status

Altitude 475.6 km
Velocity 7.63 km/s
Sub-Earth Point 4.09°N, 79.7°W
Launch Date Mar 26, 2025
Age 0.7 years
Type internet

Technical Details

Classification Payload
Mass 575.00 kg
Dry Mass 530.00 kg
Total Mass 575.00 kg
Length 0.30 m
Diameter 4.10 m
Span 29.00 m
Shape Box + pan
Manufacturer SPXS
Bus Type Starlink V2MO
Phase Status In Orbit
Owner/State SPXS/US

Large Constellations

Loading constellations...